Regional Weather Roundup
Issued by NWS Upton, NY

Current Version | Previous Version | Text Only | Print | Product List | Glossary On
Versions: 1 2 3 4 5 6 7 8 9 10 11 12 13 14 15 16 17 18 19 20 21 22 23 24 25 26 27 28 29 30 31 32 33 34 35 36 37 38 39 40 41 42 43 44 45 46 47 48 49 50
000
ASUS41 KOKX 222009
RWROKX

Regional Weather Roundup
National Weather Service New York NY
300 PM EST MON JAN 22 2018

Note: "FAIR" indicates few or no clouds below 12,000 feet with no
significant weather and/or obstructions to visibility.

NYZ071-072-176-178-NJZ106-104-222100-
New York City Metro Area

CITY           SKY/WX    TMP DP  RH WIND       PRES   REMARKS
Central Park   PTSUNNY   46  39  76 VRB7G16   30.15F
Bronx Bot Gard   N/A     43  37  81 E9        30.16R
Bronx Lehman C   N/A     43  37  81 E14         N/A
LaGuardia Arpt PTSUNNY   43  38  82 NE13      30.13F
Queens College   N/A     46  39  76 NE6         N/A
Kennedy Intl   CLOUDY    51  42  71 E7        30.13F
Breezy Point     N/A     41 N/A N/A E7          N/A
Brooklyn Coll    N/A     48  39  71 NE5         N/A
Staten Island    N/A     48  39  71 NE6         N/A
Newark/Liberty CLOUDY    50  40  68 NE8       30.11F
Teterboro      FAIR      46  39  76 E9        30.12F FOG
$$

NYZ177-179-078>081-222100-
Long Island New York

CITY           SKY/WX    TMP DP  RH WIND       PRES   REMARKS
Jones Beach      N/A     43 N/A N/A SE6         N/A
Wantagh          N/A     46  39  76 E6          N/A
Matinecock Pt    N/A     37 N/A N/A E15         N/A  WCI  28
Farmingdale    CLOUDY    48  40  73 NE7       30.14F
MacArthur/ISP  CLOUDY    50  42  74 NE10      30.14S
Shirley        CLOUDY    49  43  80 N6        30.16R
Mt Sinai Harb    N/A    N/A N/A N/A E2          N/A
Westhampton    FAIR      11   6  81 E9        30.18R WCI  -2
East Hampton   NOT AVBL
Southold         N/A     39  37  93 E13         N/A  WCI  32
Montauk          N/A     42  38  85 NE8G17    30.19S
$$

NYZ052-065-067-222100-
Hudson Valley

CITY           SKY/WX    TMP DP  RH WIND       PRES   REMARKS
White Plains   PTSUNNY   44  39  82 E6        30.12F HAZE
Larchmont Harb   N/A     36 N/A N/A NE14        N/A  WCI  27
Croton On Huds   N/A     43 N/A N/A MISG        N/A
Somers           N/A     43  39  87 E3          N/A
Brewster         N/A     39  37  93 E5          N/A
Newburgh       CLOUDY    41  39  93 VRB5      30.14F FOG
Montgomery     CLOUDY    39  35  86 N7        30.11F FOG     WCI  34
Otisville        N/A     37  36  93 NE2         N/A
Warwick          N/A     43  39  87 NW2         N/A
Suffern          N/A     46  39  76 E2          N/A
Poughkeepsie   CLOUDY    39  34  82 CALM      30.14F HAZE
Albany         CLOUDY    35  29  78 NE5       30.15F WCI  31
$$

NJZ001-105-106-008-010-013-015-019>022-104-222100-
New Jersey

CITY           SKY/WX    TMP DP  RH WIND       PRES   REMARKS
Newark/Liberty CLOUDY    50  40  68 NE8       30.11F
Teterboro      FAIR      46  39  76 E9        30.12F FOG
Caldwell       CLOUDY    48  40  73 E8        30.12F HAZE
Somerville     CLOUDY    52  41  66 E3        30.08F HAZE
Linden         CLOUDY    49  38  66 E8        30.11F
Perth Amboy      N/A     39 N/A N/A SE9         N/A  WCI  33
Sussex         CLOUDY    43  39  86 NE8       30.10F FOG
Andover          N/A     48  39  71 CALM      30.09F
Trenton        CLOUDY    54  41  61 E6        30.09F
Millville      FAIR      63  44  50 S5        30.09F
Atlantic City  CLOUDY    57  42  57 S8        30.10F
Wrightstown    PTSUNNY   60  43  52 SE6       30.06F
Toms River     FAIR      56  42  59 E5        30.11S
Belmar         PTSUNNY   48  39  71 E10       30.12F
$$

PAZ047>061-062-071-222100-
Eastern Pennsylvania

CITY           SKY/WX    TMP DP  RH WIND       PRES   REMARKS
Philadelphia   CLOUDY    60  41  49 S3        30.08F
Allentown      CLOUDY    52  40  63 E6        30.07F
Scranton       CLOUDY    44  43  96 NE3       30.03F FOG
$$

CTZ002-004>006-009-010-012-RIZ004-006-007-MAZ004-011-015-222100-
Southern New England

 In CT

CITY           SKY/WX    TMP DP  RH WIND       PRES   REMARKS
Bradley Intl   CLOUDY    38  37  97 N6        30.19F FOG     WCI  33
Hartford       CLOUDY    39  37  92 N6        30.20S FOG     WCI  35
Danbury        CLOUDY    42  39  89 NE6       30.16S FOG
Wtrbury/Oxford FOG       38  37  97 NE7       30.16R VSB 1   WCI  33
Norwalk Harbor   N/A     37 N/A N/A E13         N/A  WCI  29
Bridgeport     CLOUDY    43  38  82 E6        30.17S HAZE
Meriden        CLOUDY    39  36  89 N5        30.19R FOG
New Haven      CLOUDY    45  38  76 CALM      30.17S HAZE
Chester        CLOUDY    43  39  87 E6        30.17S FOG
Groton         CLOUDY    43  37  79 NE10      30.19S
Willimantic    CLOUDY    40  37  89 NE12      30.20F FOG     WCI  33

 In RI

CITY           SKY/WX    TMP DP  RH WIND       PRES   REMARKS
Providence     CLOUDY    39  39 100 NE8       30.24R FOG     WCI  33
Block Island   CLOUDY    39  37  92 NE8       30.21R WCI  33
Westerly       CLOUDY    42  37  82 NE10      30.21R

In MA

CITY           SKY/WX    TMP DP  RH WIND       PRES   REMARKS
Boston         CLOUDY    38  36  92 NE9       30.26F FOG     WCI  31
Worcester      FOG       32  30  92 NE6       30.21R VSB<1/4 WCI  26
Westfield      CLOUDY    36  36 100 N7        30.20S FOG     WCI  30
Provincetown   CLOUDY    38  36  92 NW5       30.28R WCI  34
Nantucket      CLOUDY    40  40 100 E8        30.23S FOG     WCI  34
$$

ANZ330-335-338-340-345-350-353-355-222100-
Coastal Marine Observations


STATION/POSITION TIME  SKY/WX   TEMP    WIND        PRES    VSBY  WAVE
                                AIR SEA DIR/SP/G                  HT/PER
                 (UTC)          (F)     (DEG/KT/KT) (MB)    (MI)  (FT/S)
NY Harb Entrance 1850            41 41   80/  8/  8 1020.1          2/ 6
20 S Fire Island 1850            42 42  100/  4/  4 1021.2          2/ 6
15 E Barnegat Li 1930               43                N/A           2/10
Hudson Canyon    1850            51 49  190/  4/  6 1020.9          2/10
Kings Point      1948            44 34  100/  6/ 10 1021.1
Execution Rocks  NOT AVBL
Western LI Sound NOT AVBL
Central LI Sound 1915            39      80/ 12/ 14   N/A           1
Robbins Reef     1948            45      50/ 12/ 12 1020.4
$$


>>>>>>>>>>>>>>>>>>>>>>>>>>>> KEY <<<<<<<<<<<<<<<<<<<<<<<<<<<
>                                                          <
>     SKY/WX - Sky Condition/Present Weather               <
>     TMP    - Temperature in Fahrenheit                   <
>     DP     - Dew Point in Fahrenheit                     <
>     RH     - Relative Humidity in Percent                <
>     WIND   - Direction (from) and Speed in MPH           <
>     PRES   - Mean Sea Level Pressure (inches of Hg)      <
>     WCI    - Wind Chill Index                            <
>     VSB    - Visibility in Miles                         <
>     HX     - Heat Index                                  <
>     TC     - Temperature in Celsius                      <
>     VRB    - Varibale Wind Direction                     <
>                                                          <
>>>>>>>>>>>>>>>>>>>>>>>>>>>> KEY <<<<<<<<<<<<<<<<<<<<<<<<<<<



USA.gov is the U.S. government's official web portal to all federal, state and local government web resources and services.